Flag for New Zealand Weather past 2 weeks in Wellington, New Zealand

Now
54 °F

Cool.


Feels Like: 48 °F
Forecast: 53 / 61 °F
Wind: 24 mph from North

Location: Wellington Airport

Current Time: Oct 26, 2014 at 1:46:14 AM

Latest Report: Oct 26, 2014 at 1:00 AM


Visibility: N/A

Pressure: 30.01 "Hg

Humidity: 72%

Dew point: 45 °F

Location of WellingtonLocation

Historic Weather in Wellington — Graph

°F

Wellington temperature yesterday

Maximum temperature yesterday: 59 °F (at 4:00 PM)
Minimum temperature yesterday: 46 °F (at 5:00 AM)
Average temperature yesterday: 53 °F

Past Weeks' High & Low Weather Summary

 TemperatureHumidityPressure
High68 °F (Oct 15, 3:30 PM)94% (Oct 12, 1:30 AM)30.33 "Hg (Oct 12, 1:30 AM)
Low46 °F (Oct 22, 6:30 AM)49% (Oct 15, 3:30 PM)29.71 "Hg (Oct 24, 1:00 AM)
Average56 °F76%30.07 "Hg
* Reported Midnight between Oct 10 and Oct 11 — Oct 26 12:30 AM, Wellington, Weather by CustomWeather, © 2014

Note: Actual official high and low records may vary slightly from our data, if they occured in-between our weather recording intervals... More about our weather records

Advertising

Wellington weather history for previous 24 hours

 ConditionsComfort  
Time TempWeatherWind HumidityBarometerVisibility
12:30 AM
Oct 26
54 °FPassing clouds.23 mph72%30.01 "HgN/A
12:00 AM54 °FPassing clouds.23 mph72%30.04 "HgN/A
11:30 PM
Oct 25
54 °FCool.22 mph77%30.04 "HgN/A
11:00 PM54 °FPassing clouds.20 mph77%30.04 "HgN/A
10:30 PM54 °FPassing clouds.18 mph77%30.07 "HgN/A
10:00 PM54 °FMostly cloudy.18 mph77%30.07 "HgN/A
9:30 PM54 °FMostly cloudy.22 mph77%30.07 "HgN/A
9:00 PM54 °FPassing clouds.21 mph77%30.09 "HgN/A
8:30 PM54 °FPassing clouds.23 mph72%30.09 "HgN/A
8:00 PM54 °FOvercast.20 mph72%30.09 "HgN/A
7:30 PM54 °FPartly sunny.21 mph72%30.09 "HgN/A
7:00 PM54 °FPartly sunny.21 mph72%30.09 "HgN/A
6:30 PM55 °FScattered clouds.20 mph67%30.09 "HgN/A
6:00 PM55 °FCool.20 mph67%30.09 "HgN/A
5:30 PM55 °FCool.21 mph63%30.12 "HgN/A
5:00 PM57 °FCool.17 mph63%30.12 "HgN/A
4:30 PM59 °FRefreshingly cool.17 mph55%30.12 "HgN/A
4:00 PM59 °FPassing clouds.14 mph51%30.15 "HgN/A
3:30 PM57 °FRefreshingly cool.13 mph55%30.15 "HgN/A
3:00 PM57 °FRefreshingly cool.14 mph51%30.15 "HgN/A
2:30 PM55 °FRefreshingly cool.7 mph55%30.18 "HgN/A
2:00 PM55 °FRefreshingly cool.9 mph51%30.18 "HgN/A
1:30 PM55 °FRefreshingly cool.8 mph55%30.18 "HgN/A
1:00 PM54 °FCool.8 mph58%30.21 "HgN/A
12:30 PM55 °FRefreshingly cool.6 mph55%30.21 "HgN/A
12:00 PM54 °FCool.6 mph63%30.24 "HgN/A
11:30 AM54 °FCool.5 mph58%30.24 "HgN/A
11:00 AM52 °FCool.7 mph67%30.24 "HgN/A
10:30 AM52 °FCool.10 mph72%30.24 "HgN/A
10:00 AM52 °FPassing clouds.12 mph62%30.24 "HgN/A
9:30 AM52 °FPartly sunny.12 mph67%30.24 "HgN/A
9:00 AM52 °FCool.12 mph62%30.24 "HgN/A
8:30 AM52 °FScattered clouds.10 mph62%30.24 "HgN/A
8:00 AM50 °FPassing clouds.10 mph67%30.24 "HgN/A
7:30 AM50 °FCool.14 mph67%30.24 "HgN/A
7:00 AM48 °FPassing clouds.14 mph71%30.21 "HgN/A
6:30 AM48 °FMore clouds than sun.16 mph71%30.21 "HgN/A
6:00 AM48 °FPassing clouds.20 mph66%30.21 "HgN/A
5:30 AM48 °FLight rain. Mostly cloudy.18 mph71%30.21 "HgN/A
5:00 AM46 °FLight rain. Passing clouds.23 mph76%30.21 "HgN/A
4:30 AM50 °FPassing clouds.21 mph62%30.21 "HgN/A
4:00 AM50 °FPassing clouds.23 mph58%30.21 "HgN/A
3:30 AM48 °FPassing clouds.24 mph62%30.21 "HgN/A
3:00 AM50 °FPassing clouds.24 mph58%30.21 "HgN/A
2:30 AM50 °FCool.25 mph58%30.21 "HgN/A
2:00 AM50 °FPassing clouds.24 mph58%30.21 "HgN/A
1:30 AM50 °FPassing clouds.28 mph62%30.21 "HgN/A
1:00 AM50 °FPartly cloudy.30 mph67%30.18 "HgN/A
Weather by CustomWeather, © 2014

See weather overviewHow to use our weather pages